GFSSW_500_rhum_063.txt.gz
RH
21 21 20 21 23 23 20 16 12 12 14 15 19 22 16 10 6 6 7 8 26 36 37 39 33 28 24 58 82 76 72 90 100 99 90 84 79 59 52 63 64 60 69 71 90
24 24 24 27 27 30 26 20 15 13 14 16 24 23 15 10 6 6 7 10 23 27 32 39 36 30 49 70 83 74 67 72 99 100 98 82 71 60 63 69 61 61 60 54 84
26 26 26 28 33 37 31 23 18 15 16 19 25 24 15 10 7 8 7 14 24 21 30 38 49 48 66 84 90 70 53 53 85 100 99 98 82 63 55 51 39 41 43 52 62
29 28 28 33 42 40 32 26 21 16 17 26 26 25 14 11 8 7 10 20 27 22 36 39 73 78 53 83 83 75 53 48 71 95 96 80 58 46 41 27 27 36 49 55 87
40 40 44 50 45 41 35 30 22 20 25 28 27 25 14 10 8 8 12 23 29 31 38 57 69 69 42 98 83 84 77 66 54 71 61 42 50 46 44 42 31 29 50 59 96
63 68 54 50 48 44 39 33 24 21 32 30 28 26 14 10 9 9 13 22 25 37 40 45 62 62 66 63 82 85 83 70 57 60 58 54 46 61 71 68 56 80 89 94 97
61 56 54 48 49 48 44 36 27 22 34 32 31 23 14 11 9 10 16 21 32 34 45 56 55 51 49 60 58 82 80 66 65 57 68 64 92 85 80 83 91 98 97 97 96
68 65 57 54 53 55 64 50 29 24 36 34 34 20 13 11 10 11 20 20 23 37 57 52 49 45 38 55 67 72 80 69 68 62 71 97 85 89 92 90 83 97 96 95 94
79 64 62 76 66 58 60 58 32 26 39 38 35 18 13 11 11 11 24 20 22 37 64 56 44 48 39 51 70 62 50 58 66 86 91 71 50 34 67 88 36 47 71 28 29
86 96 94 95 92 65 53 46 34 30 40 39 35 19 15 13 10 12 22 19 20 44 51 40 46 62 68 82 83 86 81 54 75 95 83 80 45 39 37 52 48 39 22 19 17
93 88 90 94 95 88 70 47 41 32 40 42 38 18 14 11 10 13 19 16 32 46 51 63 76 80 90 87 77 100 93 91 98 90 87 72 52 74 58 64 47 38 36 32 20
98 96 96 96 92 91 67 66 43 34 40 44 40 19 14 10 10 12 17 16 36 51 66 77 82 84 71 68 94 94 62 46 38 47 53 62 46 64 62 70 58 49 41 23 22
97 98 96 96 94 82 83 54 45 37 33 48 38 17 14 11 11 10 17 12 36 46 53 72 82 88 87 76 85 92 91 62 35 21 33 25 39 44 57 90 56 43 34 17 18
99 98 95 96 97 94 85 60 47 41 37 46 37 19 15 11 13 11 14 11 28 44 49 62 62 73 71 69 66 62 78 88 51 38 43 31 41 44 35 41 61 66 31 32 38
100 99 96 93 98 95 85 79 52 44 43 43 36 21 16 12 13 11 13 12 26 50 40 40 53 60 57 67 74 58 64 58 51 89 75 32 15 21 36 43 65 62 74 61 54
100 99 96 96 98 91 88 92 76 58 46 44 36 27 17 13 13 9 15 15 23 26 49 41 44 65 73 68 65 62 52 68 70 90 74 67 30 34 48 65 70 52 69 39 38
100 98 98 100 99 90 95 92 94 70 54 48 35 31 16 12 14 10 13 17 20 21 32 40 41 57 70 76 66 58 49 57 72 81 71 69 58 50 71 75 56 38 57 34 27
97 99 100 100 94 86 96 94 79 66 78 52 34 35 17 14 14 12 14 18 25 26 33 37 44 56 64 72 74 78 65 46 46 60 60 58 42 36 70 70 54 37 36 30 17
92 92 95 100 96 89 90 84 55 73 66 52 32 36 21 15 13 14 13 22 22 26 30 36 47 72 77 80 80 82 56 38 32 38 39 38 34 62 50 76 60 44 34 21 17
54 84 93 100 96 88 82 66 60 80 65 65 41 40 18 13 12 13 15 20 20 22 30 40 49 65 66 82 100 98 88 61 45 51 43 40 41 56 66 63 42 29 32 21 19
34 56 73 73 96 82 55 51 64 87 79 54 51 60 20 16 15 16 16 22 21 21 21 31 42 59 62 57 100 98 88 56 29 45 53 42 48 39 24 19 15 26 41 85 61
30 34 57 73 78 53 46 52 67 92 92 65 57 61 25 13 13 20 16 24 29 28 26 29 35 32 37 78 81 89 79 81 42 43 35 32 32 16 16 19 21 32 69 88 81
26 30 41 48 63 27 46 63 71 86 92 59 76 68 35 14 18 21 20 24 24 30 26 27 25 24 30 68 59 89 88 94 75 20 15 19 17 17 13 12 19 26 50 44 42
16 19 26 48 38 38 47 58 65 79 89 92 78 68 45 18 14 20 26 24 23 26 31 35 35 38 56 68 98 90 100 83 50 43 23 20 13 15 21 15 11 12 14 12 13
7 16 27 30 22 22 42 49 67 82 84 95 81 74 57 22 15 22 26 29 31 37 32 28 36 70 64 63 74 65 49 67 33 22 12 14 9 12 28 19 19 16 16 14 19
6 12 26 25 32 32 30 37 51 84 90 80 78 79 57 22 21 33 39 35 35 46 78 89 51 33 30 21 19 19 22 24 22 10 8 10 8 8 11 21 23 24 19 23 25
5 8 20 24 32 34 18 33 49 90 75 58 75 76 43 20 40 37 49 41 44 54 100 100 93 29 15 17 18 18 15 15 13 13 11 10 9 9 10 16 18 21 23 24 25

GFSSW_500_rhum_066.txt.gz
RH
22 22 22 21 21 21 21 23 24 23 20 15 15 14 16 25 24 16 10 9 8 10 19 20 37 39 32 40 89 87 78 71 76 100 100 96 100 96 94 65 89 76 79 78 60
26 25 24 24 23 23 24 27 30 32 26 20 16 16 20 26 24 15 13 9 8 13 20 20 42 42 34 60 97 84 75 69 68 98 98 98 98 90 78 75 66 66 66 55 54
32 28 26 26 26 26 26 28 36 33 29 24 20 17 27 27 24 17 12 9 10 17 17 33 57 53 47 68 78 78 72 66 57 80 99 96 96 90 74 65 56 52 49 52 60
53 34 32 30 29 28 28 33 41 37 32 26 21 24 29 28 25 16 12 10 12 15 21 39 62 70 78 54 75 80 80 60 50 60 85 97 93 82 80 60 51 42 41 57 56
74 66 75 80 78 32 36 46 43 42 36 28 23 31 30 29 22 15 12 10 14 20 28 36 50 71 70 64 50 81 96 79 61 50 63 72 68 59 54 51 35 26 29 31 43
85 79 82 70 59 60 61 49 44 43 38 30 25 33 32 30 22 15 11 11 14 21 31 36 47 64 64 64 50 72 86 76 63 56 56 61 59 47 56 64 57 50 69 77 94
83 79 92 86 82 73 78 52 46 46 49 34 26 35 33 33 19 14 12 11 15 19 27 33 36 54 53 49 67 68 74 85 82 69 63 58 62 87 95 86 78 79 96 100 97
89 73 76 91 87 86 76 65 53 48 62 52 27 36 35 33 18 15 13 11 13 15 30 47 39 47 48 44 45 71 66 76 77 73 65 68 90 76 95 62 80 96 96 97 96
99 92 74 88 93 82 86 66 66 56 62 48 28 36 37 33 20 16 12 11 12 26 37 38 50 42 47 39 43 58 71 66 71 74 64 82 54 60 68 43 47 84 91 94 85
100 98 95 93 94 92 84 77 74 64 54 47 32 38 37 35 20 16 12 11 13 34 35 43 53 55 52 48 60 91 94 92 85 73 92 59 51 79 66 59 48 34 33 45 51
99 99 97 94 94 91 94 95 86 77 61 49 36 40 41 37 18 16 12 11 19 41 48 53 67 49 53 54 68 80 98 80 58 79 68 51 68 66 80 72 63 38 23 27 27
97 98 97 98 96 94 87 86 85 80 68 53 40 43 43 39 20 15 12 12 16 40 52 55 61 53 46 57 81 99 100 99 99 84 68 73 44 75 69 77 64 57 30 24 20
95 98 97 96 96 99 96 90 88 81 64 61 38 44 45 39 19 14 12 11 15 35 46 49 58 57 57 54 69 81 82 81 76 72 71 65 52 50 66 62 49 49 50 24 23
87 95 97 96 98 98 94 100 90 81 67 55 45 41 41 37 20 16 14 10 17 26 36 56 57 67 74 67 69 69 72 59 35 29 39 42 62 45 62 69 68 71 46 50 64
92 96 92 96 99 96 92 100 91 85 65 54 46 41 42 36 22 18 14 11 16 26 30 47 52 55 69 62 61 58 59 61 60 59 35 50 43 33 28 51 66 62 44 32 50
72 100 87 95 100 95 95 97 94 89 69 59 46 41 42 34 22 16 13 11 14 20 23 31 47 43 59 57 55 61 62 55 56 52 42 52 33 28 51 63 68 60 63 60 41
45 81 90 99 100 86 94 96 99 74 68 63 54 45 44 32 24 16 13 11 16 17 21 28 48 36 45 58 59 64 58 62 62 62 48 52 48 43 66 57 62 49 48 62 32
31 45 76 100 91 83 87 94 82 62 82 82 61 52 54 35 27 15 14 11 14 18 21 21 46 46 47 59 70 67 62 64 63 59 52 59 44 54 57 59 65 51 40 33 32
25 33 42 99 93 88 89 77 65 73 88 91 95 70 56 41 34 19 15 13 16 19 26 32 27 44 47 61 60 65 64 74 81 57 43 38 41 36 46 50 68 69 62 44 35
13 25 29 90 99 92 77 50 61 77 94 96 95 94 73 37 32 19 15 14 15 25 24 32 33 44 41 47 59 70 72 74 65 62 51 39 45 36 44 65 46 55 49 27 28
9 14 21 59 97 89 32 27 53 70 96 96 96 93 58 41 33 31 16 16 19 26 22 20 25 33 37 48 64 80 79 77 74 64 44 31 46 40 55 47 36 38 41 19 26
6 10 15 41 72 50 16 17 46 71 90 96 91 82 61 31 38 27 15 16 23 25 26 23 21 21 29 50 55 60 61 74 68 57 46 43 36 43 54 31 18 16 16 21 37
5 7 10 21 55 21 18 20 44 76 84 92 97 70 76 39 44 39 16 21 26 21 24 25 22 25 29 37 36 40 57 66 57 61 58 70 15 18 29 21 23 34 32 46 34
4 5 6 12 20 26 23 17 35 68 83 86 96 83 52 37 49 35 20 22 23 19 24 26 23 24 24 32 58 65 65 76 68 59 41 26 42 41 24 15 18 18 19 21 21
3 4 5 9 14 11 15 17 35 62 77 91 91 96 82 52 63 49 26 29 26 25 28 29 27 29 29 34 62 65 73 58 50 61 34 34 16 11 9 7 9 18 20 20 26
4 3 4 6 14 15 13 11 16 53 73 88 84 100 82 46 60 59 33 32 39 32 33 34 31 38 44 40 48 72 50 59 30 17 14 12 6 7 10 10 10 12 18 28 26
11 3 4 5 12 18 9 12 14 51 67 90 99 84 94 91 77 95 72 37 29 40 46 53 46 58 77 87 43 27 29 25 19 19 13 6 7 10 13 13 13 14 20 20 24

GFSSW_500_rhum_069.txt.gz
RH
28 27 25 24 22 21 22 21 21 21 24 27 31 26 22 18 12 21 27 26 18 13 11 9 14 26 37 35 52 92 86 90 73 85 99 92 89 100 94 76 80 65 52 72 85
37 35 31 28 26 24 24 23 23 24 26 29 33 30 24 17 14 27 28 25 15 12 11 9 17 32 42 37 78 94 83 87 70 68 82 87 82 94 92 85 84 84 73 84 74
47 48 46 38 32 29 27 26 26 27 27 34 37 35 27 18 22 27 29 22 15 12 10 11 23 36 52 48 53 99 89 80 72 62 75 89 90 94 92 83 71 62 59 62 62
68 62 61 55 61 45 32 30 31 30 29 41 40 38 28 19 29 30 31 21 14 13 11 18 28 40 57 59 48 94 99 84 65 54 54 66 73 72 73 74 71 56 45 44 46
66 73 75 64 63 77 66 49 66 60 43 45 44 40 30 21 32 31 32 19 14 14 10 27 25 41 54 53 58 62 96 83 66 61 56 60 61 63 54 50 47 38 39 40 39
65 76 79 78 81 85 78 78 68 53 56 48 46 45 33 24 30 33 32 18 15 13 11 23 33 40 52 50 54 47 86 84 87 86 79 64 60 59 54 39 46 47 50 49 46
86 87 80 84 89 78 88 87 77 68 68 51 48 52 53 28 32 34 32 18 14 12 14 32 40 38 40 48 50 56 64 78 82 77 80 73 70 75 85 75 69 63 64 76 83
81 80 87 91 86 86 87 82 83 91 69 64 54 51 65 28 34 36 30 19 14 12 16 25 27 38 39 45 45 45 69 69 71 76 76 66 77 82 66 53 68 72 80 99 100
87 91 94 91 93 86 81 86 79 94 80 66 61 55 55 31 36 38 32 18 14 13 20 26 24 36 40 44 42 42 65 93 86 60 62 79 86 82 55 41 63 94 89 91 96
70 85 95 89 92 90 94 85 82 92 83 77 66 61 51 35 38 40 33 18 13 14 25 29 38 35 39 50 52 55 69 90 90 45 52 91 82 82 63 49 46 45 65 93 90
40 67 80 90 84 86 96 93 84 82 93 93 91 80 54 38 40 42 36 18 15 14 32 42 40 45 48 43 56 65 78 69 41 55 100 84 89 95 96 63 44 46 36 37 51
23 53 72 83 87 86 92 94 88 86 71 83 80 82 55 45 42 42 36 18 15 12 35 43 41 50 51 54 62 75 81 82 50 57 90 73 70 84 94 87 51 39 32 28 33
17 28 68 78 86 96 91 83 87 89 77 93 77 74 57 49 45 44 35 17 15 12 30 40 41 43 45 46 56 70 72 69 75 79 80 78 54 78 82 70 51 56 39 27 20
20 16 42 69 83 100 92 88 89 81 81 90 93 73 68 46 42 42 35 18 16 13 20 36 47 56 47 40 49 66 61 51 54 74 74 54 56 66 84 77 90 90 46 38 28
21 22 24 62 81 100 93 96 95 89 79 85 83 72 55 46 44 40 28 22 16 15 12 35 48 76 60 49 49 60 72 76 67 50 37 39 32 46 63 88 86 100 97 66 40
20 26 26 46 96 99 94 96 97 95 80 75 63 64 62 54 45 43 36 22 16 12 13 24 42 77 67 53 50 56 62 67 71 79 76 65 47 36 43 73 75 84 96 92 48
14 22 29 35 100 85 90 99 97 80 74 83 71 62 58 48 43 42 31 18 13 13 15 16 27 46 62 51 49 55 50 59 64 66 67 64 52 56 53 57 80 89 73 70 81
9 14 23 34 100 86 90 87 86 61 84 83 74 74 77 51 46 41 28 19 14 12 18 20 20 32 53 64 56 63 58 52 51 50 55 52 40 57 75 54 42 62 72 45 75
6 10 15 28 57 99 89 73 55 74 93 94 90 84 79 58 50 43 32 18 16 13 15 20 23 24 40 63 66 67 70 67 58 51 47 44 44 38 47 46 57 51 68 63 59
5 6 10 16 34 94 79 36 54 55 84 97 97 90 99 82 58 50 44 28 16 13 15 21 27 28 35 48 66 62 65 66 59 53 55 44 39 34 46 46 60 66 64 53 51
5 6 7 9 18 64 30 14 32 52 71 90 96 97 100 96 85 47 40 29 21 19 17 22 26 26 27 29 52 64 66 68 68 61 56 51 45 36 45 41 47 52 49 47 54
4 5 5 8 10 24 18 16 17 40 57 84 97 100 100 98 96 95 38 30 27 24 20 23 25 25 29 33 34 39 48 75 76 68 62 55 42 51 45 46 52 32 26 19 18
5 4 5 7 8 13 15 18 19 29 51 76 98 98 97 98 93 85 38 30 23 31 21 22 16 20 26 31 27 32 41 55 63 56 44 42 37 55 28 18 28 30 22 18 17
17 6 4 6 6 9 13 15 16 19 46 67 91 98 98 98 76 51 43 32 24 29 23 21 19 18 22 34 51 45 37 42 54 52 63 61 64 43 30 23 24 19 13 16 20
42 14 7 4 6 6 9 12 17 20 41 59 84 87 100 98 77 50 47 46 40 32 27 22 22 21 22 27 30 30 29 36 51 63 58 56 36 34 19 11 8 7 6 7 7
40 24 10 4 5 6 7 8 11 17 43 44 72 89 99 99 66 56 77 80 85 47 42 31 34 27 27 29 29 34 36 32 62 59 46 48 13 18 10 7 8 9 10 8 7
27 32 17 4 4 5 5 7 9 14 33 48 77 96 96 100 97 93 92 90 88 54 43 39 35 34 32 41 45 34 46 36 37 41 45 34 16 9 8 8 11 17 19 20 19

GFSSW_500_rhum_072.txt.gz
RH
35 37 32 29 30 28 26 25 23 22 22 22 23 25 27 33 30 24 15 20 26 28 22 11 9 9 26 33 36 62 81 92 91 69 94 100 93 86 99 90 85 98 80 69 65
36 34 40 42 36 34 33 30 27 25 24 24 25 27 30 38 35 27 22 26 29 30 17 10 11 14 29 40 38 72 83 86 88 68 66 73 92 85 86 94 88 65 66 73 62
50 47 46 41 42 46 47 42 34 33 27 27 28 29 36 41 36 27 23 30 32 29 15 10 15 16 30 45 39 75 80 80 80 74 61 67 78 91 82 78 76 70 67 62 65
65 65 58 56 55 58 60 59 51 62 40 31 40 41 43 44 41 30 24 32 33 27 15 9 15 21 27 41 53 65 80 84 71 63 54 56 58 63 61 60 64 62 61 63 58
68 71 80 74 66 63 71 72 63 68 78 54 69 60 49 47 44 33 26 33 35 24 13 10 17 24 27 36 56 36 82 86 78 76 79 72 62 59 54 44 41 44 44 41 43
60 66 76 82 72 70 70 73 74 81 78 77 81 60 58 50 52 48 30 36 36 22 12 10 19 26 25 32 44 45 57 86 80 78 89 82 74 64 54 47 30 31 51 42 34
62 62 68 73 73 70 74 80 71 77 81 89 83 71 65 52 52 55 31 38 37 21 12 11 20 19 24 30 41 45 58 58 68 77 78 74 68 61 54 67 55 56 52 51 56
46 58 66 68 70 80 78 89 73 78 78 85 85 87 70 60 55 52 33 40 37 20 11 13 24 14 23 33 41 45 53 100 67 62 68 65 100 72 72 50 64 61 57 88 96
34 39 54 66 67 74 72 70 75 77 80 79 82 85 77 66 59 54 38 41 40 21 12 14 29 26 22 31 46 48 100 91 63 45 43 54 83 92 56 41 58 79 74 98 99
26 37 37 47 57 63 70 66 64 72 85 86 86 95 82 75 66 56 40 43 41 20 13 15 30 33 35 45 100 100 88 59 70 44 42 70 82 79 60 45 60 82 83 90 95
20 18 30 47 57 58 60 64 61 62 80 94 93 99 98 88 77 60 44 45 42 21 13 18 30 34 49 43 54 70 76 81 97 35 64 84 87 88 84 86 43 42 41 85 91
26 21 17 21 33 41 66 58 67 60 62 90 93 99 98 96 94 69 49 45 41 21 14 17 33 37 36 37 53 68 73 84 50 38 74 84 88 90 88 76 61 42 33 30 47
32 27 21 18 16 29 46 54 80 67 55 85 89 98 95 85 87 63 54 47 41 21 15 13 30 35 33 34 43 58 65 64 53 52 65 67 76 93 83 79 60 62 32 27 25
18 28 26 22 21 20 23 26 77 73 62 68 94 83 97 86 70 60 52 48 44 22 16 12 31 40 32 39 40 50 55 53 43 51 100 72 100 69 74 77 72 74 58 33 22
9 17 23 26 23 28 37 28 51 81 74 76 87 94 80 87 72 70 53 48 40 23 18 16 30 39 32 44 47 51 58 54 64 44 41 39 56 98 64 84 90 87 86 67 37
5 8 14 21 24 30 37 36 42 81 71 77 78 95 98 82 72 64 49 45 33 25 18 12 21 49 43 42 52 50 52 56 58 63 69 65 53 97 84 63 76 87 95 89 71
2 5 8 13 20 26 29 43 60 46 61 80 82 95 94 84 74 61 52 46 40 28 16 13 16 46 52 48 55 53 61 91 66 56 91 59 64 80 53 62 70 82 98 98 86
2 2 6 8 13 20 30 50 35 20 63 90 86 96 96 67 69 63 55 46 39 20 20 15 13 19 41 56 63 68 67 100 91 83 99 48 43 61 57 54 53 59 82 78 71
3 2 3 6 10 13 24 30 22 22 49 96 100 96 96 92 65 55 46 42 28 20 16 16 16 20 22 32 52 61 72 72 69 63 58 53 44 46 41 36 47 39 60 72 72
8 3 3 6 8 10 15 20 21 21 46 91 96 97 95 97 86 59 48 40 28 20 19 20 20 23 22 27 30 51 69 75 65 62 58 68 50 52 46 35 41 36 42 54 70
18 6 4 6 8 8 10 16 20 21 31 78 97 98 97 96 99 97 60 43 31 23 20 17 18 22 25 23 32 33 56 67 77 68 68 58 62 48 56 42 35 37 41 57 57
19 10 7 7 7 7 7 13 18 22 24 71 96 99 98 98 97 96 64 46 42 33 23 19 20 22 28 26 26 36 40 60 55 83 64 65 50 56 54 61 47 43 43 41 40
29 15 14 16 7 7 6 8 14 19 28 44 82 98 98 97 95 98 98 81 65 41 28 24 21 26 30 25 25 24 28 38 41 54 59 52 36 46 52 59 56 23 22 32 27
45 32 26 16 8 6 6 6 9 16 26 33 63 92 98 98 97 98 99 97 82 45 40 39 32 26 22 30 36 32 36 38 51 66 39 31 37 71 80 69 34 22 24 21 17
71 31 15 9 7 5 6 6 7 11 18 33 46 71 93 100 98 99 98 98 98 57 41 37 26 22 22 33 40 31 31 33 34 31 36 31 52 64 58 46 30 14 8 6 6
83 42 27 10 6 6 6 6 6 8 13 22 33 58 75 100 99 98 98 99 98 87 52 43 37 24 22 23 33 31 29 30 28 28 28 46 38 51 26 14 9 6 7 8 11
58 65 31 22 9 9 5 5 5 6 9 17 35 54 65 99 99 97 98 99 99 93 62 56 48 32 24 27 32 21 20 33 56 49 27 27 35 39 22 11 6 6 9 13 18

GFSSW_500_rhum_075.txt.gz
RH
26 24 25 25 28 28 27 29 29 29 28 27 26 24 24 25 26 29 38 32 26 25 32 29 14 10 10 20 25 26 61 98 83 86 96 93 83 91 79 82 60 77 87 62 68
30 30 30 30 28 29 32 34 35 35 34 31 29 28 27 27 29 37 42 39 30 27 34 25 12 10 16 23 21 23 96 98 89 91 82 62 64 73 74 76 94 84 78 74 66
37 34 30 36 41 41 37 40 39 45 50 43 36 45 32 31 47 46 44 40 29 29 37 22 10 13 20 24 21 88 98 100 79 76 64 66 73 68 83 79 82 70 80 74 74
45 42 40 39 57 62 59 52 50 55 61 60 55 64 59 39 61 56 46 47 34 32 36 18 10 14 18 28 52 42 96 69 70 62 60 100 58 53 54 63 60 54 49 57 66
49 52 52 48 57 60 56 67 59 60 63 68 68 76 80 67 70 61 50 54 50 35 35 17 9 14 17 28 39 51 62 79 62 66 60 69 63 66 55 47 39 33 62 52 45
36 43 58 56 55 59 57 57 60 62 59 64 73 85 76 81 72 66 53 55 55 36 34 15 10 16 14 23 31 59 35 58 52 80 62 65 70 60 36 39 29 21 36 62 70
32 32 38 50 54 59 59 61 63 61 60 61 73 74 79 87 80 72 59 59 49 37 36 15 11 19 12 20 27 37 33 59 40 81 85 71 63 96 43 34 44 40 38 29 44
34 32 31 35 34 51 62 64 63 62 71 68 66 74 80 78 87 86 66 61 54 40 37 15 14 22 14 18 24 24 73 100 94 100 62 51 67 92 56 58 49 47 50 52 41
30 28 28 29 32 41 60 69 52 57 63 62 57 64 72 79 81 79 71 65 54 43 39 16 16 24 26 32 89 100 98 95 96 80 45 43 98 98 65 53 47 61 70 65 71
36 33 27 21 25 28 39 48 50 42 52 58 51 61 64 83 92 86 80 70 58 46 42 17 15 26 32 43 99 100 94 100 72 94 88 91 91 94 71 59 50 80 81 92 83
31 33 35 32 26 17 25 29 39 31 34 52 46 53 55 76 96 85 90 81 65 49 40 18 14 24 72 91 54 100 96 100 96 98 48 94 98 92 84 83 53 83 32 92 81
19 21 24 29 34 25 18 26 33 41 28 47 48 43 55 80 86 90 86 94 78 53 44 21 11 27 36 33 46 55 98 100 99 95 46 78 98 98 69 71 60 37 27 24 45
9 11 14 19 27 33 25 18 32 42 26 34 46 39 73 66 85 86 89 99 93 58 49 20 21 19 26 30 37 54 100 100 98 94 58 60 81 100 97 56 72 58 43 23 23
4 4 5 9 15 23 31 23 18 25 28 22 50 41 60 68 67 98 79 98 84 56 46 26 14 17 29 31 36 90 71 49 42 45 99 87 100 82 100 58 64 62 58 45 29
2 2 2 3 6 14 24 28 23 19 34 30 20 40 55 67 82 95 95 92 62 56 48 33 17 14 26 35 36 75 46 45 40 58 100 96 72 93 93 88 91 80 72 74 65
2 2 2 2 2 8 14 25 27 31 21 27 20 30 58 77 79 95 84 76 64 59 49 28 18 12 23 33 37 42 47 47 43 68 95 99 86 98 98 97 97 100 78 57 58
2 2 2 2 2 6 9 16 28 28 25 26 22 27 59 76 73 95 90 77 67 50 42 29 18 14 15 32 38 47 52 90 100 100 77 97 53 90 94 97 34 66 79 75 67
8 4 2 2 2 5 8 10 17 24 25 24 24 26 49 86 76 96 96 89 69 54 44 31 27 14 14 31 42 52 91 99 100 97 100 89 42 87 67 38 35 53 56 61 69
25 14 6 2 3 6 9 10 9 16 26 27 24 31 65 91 88 95 97 85 68 55 46 32 25 43 21 28 48 99 72 95 96 81 63 95 94 62 56 48 37 38 55 50 54
27 23 15 7 7 8 9 8 5 12 21 25 25 35 59 100 95 96 97 79 69 61 45 37 69 60 21 21 22 36 69 77 81 95 94 98 99 87 94 58 45 39 37 40 45
68 37 26 24 14 15 9 5 4 9 15 22 25 34 63 100 93 96 91 73 77 80 42 38 30 99 20 17 19 24 30 65 100 99 100 98 94 94 96 76 55 49 39 36 39
88 63 37 36 21 11 11 3 6 8 11 17 23 34 54 99 96 97 92 89 71 60 38 29 26 87 24 21 23 100 87 96 100 100 100 98 80 98 81 79 54 53 55 45 38
91 84 82 58 26 10 6 5 8 8 9 13 18 29 57 76 98 97 98 96 83 87 61 37 35 32 96 35 18 25 42 98 94 100 95 90 57 98 94 57 62 64 60 51 34
96 90 76 65 30 18 4 6 7 9 8 12 37 24 56 66 99 97 99 97 96 49 48 45 42 33 23 45 65 21 25 52 99 94 36 53 98 94 96 96 100 91 92 33 20
92 59 51 52 37 26 10 5 6 8 9 10 18 19 42 73 96 99 97 98 98 96 74 53 45 44 36 91 100 98 64 25 40 52 80 56 98 90 100 100 78 93 94 38 16
88 60 53 66 68 44 27 8 7 7 9 9 9 15 32 64 85 99 99 94 98 100 98 74 56 46 39 44 96 92 62 41 86 94 36 54 88 98 100 84 42 27 19 12 6
80 73 66 63 68 69 24 8 5 7 8 9 10 12 26 54 66 97 99 99 100 100 98 89 68 53 40 54 72 86 16 25 28 40 30 34 61 100 100 87 29 14 11 6 7

GFSSW_500_rhum_078.txt.gz
RH
41 34 28 26 24 24 25 26 29 29 29 29 30 30 30 30 31 32 27 31 43 42 36 27 32 16 13 7 11 17 46 95 98 98 73 36 62 55 47 43 58 79 62 71 78
42 42 41 35 32 29 29 28 30 34 34 33 33 39 46 41 41 57 37 46 52 45 40 30 30 15 11 10 14 16 54 96 98 98 69 24 46 41 46 42 83 96 96 51 46
38 37 44 42 37 37 34 32 37 42 40 40 43 54 53 52 56 62 53 53 57 48 53 34 30 11 10 9 26 22 34 100 93 97 44 25 27 82 70 52 59 81 55 53 39
39 36 35 41 46 41 41 39 48 52 52 54 48 56 60 58 65 70 68 62 62 51 55 36 29 10 12 14 83 81 26 56 89 77 21 25 90 62 86 77 52 36 28 42 53
42 39 38 37 36 47 50 46 48 54 52 55 59 56 55 54 77 73 72 70 65 53 55 37 28 11 14 24 93 60 28 44 90 28 32 38 42 77 62 64 56 33 14 15 56
47 44 37 35 38 36 39 58 51 48 54 54 55 55 44 61 69 78 78 71 71 59 54 37 29 12 15 13 16 20 16 29 98 74 96 54 52 82 82 94 50 40 18 12 20
58 52 46 45 38 36 34 39 49 50 54 50 53 54 47 70 61 79 77 73 78 66 59 41 32 12 15 11 12 14 19 94 85 67 96 51 48 34 73 65 62 47 41 35 17
66 60 54 42 36 37 34 34 35 42 50 57 55 36 44 61 61 75 78 77 80 67 62 42 33 13 19 20 24 45 69 97 93 83 64 83 21 78 76 49 46 49 48 42 24
58 51 47 41 35 33 32 32 30 30 40 42 36 38 39 53 54 64 82 82 75 74 67 44 36 13 20 22 45 78 93 86 77 95 70 97 44 48 76 48 54 63 53 45 34
74 53 50 45 41 36 32 28 28 28 24 33 30 32 32 40 59 63 76 86 81 76 73 50 38 15 17 26 43 97 98 98 96 93 69 76 85 70 62 90 50 57 58 59 63
32 29 39 46 35 32 35 34 28 24 22 24 20 23 25 33 48 62 67 90 84 76 76 54 39 15 18 60 60 79 87 99 100 93 92 71 59 99 90 72 39 42 53 34 45
18 16 17 19 21 20 24 29 34 30 26 21 19 16 32 36 30 56 61 82 89 87 78 68 40 14 15 90 59 44 46 62 91 99 66 51 66 95 84 63 28 45 28 25 22
10 10 10 11 8 10 14 17 24 29 27 24 23 20 30 35 31 52 55 82 90 84 87 83 44 21 18 32 29 28 40 85 95 97 90 64 68 93 90 97 58 30 49 26 21
5 5 6 6 6 5 4 8 14 20 25 22 23 24 29 36 20 64 56 74 78 79 93 90 46 26 20 24 27 27 67 89 66 77 98 90 51 80 89 72 66 58 48 48 49
5 4 4 4 4 3 3 3 5 10 18 22 23 18 37 32 49 58 64 60 68 94 96 78 49 25 15 20 28 30 51 42 37 35 84 86 63 100 96 69 97 58 90 50 55
3 3 3 3 2 2 2 3 2 10 9 16 21 20 22 30 42 53 54 60 82 91 82 74 51 35 18 16 24 32 34 42 40 37 41 96 91 92 95 96 100 78 61 46 45
2 2 2 2 2 2 2 2 3 4 4 8 16 20 20 23 34 38 62 58 67 83 72 63 51 39 20 12 23 32 41 46 49 61 66 94 68 99 95 88 92 56 35 34 32
2 2 2 2 3 2 2 3 3 2 2 4 11 21 23 28 29 38 50 53 64 88 100 89 59 36 23 11 20 38 45 44 74 90 97 98 77 91 98 76 42 37 41 44 44
20 13 8 8 16 6 4 4 2 2 2 6 8 24 23 28 35 50 58 54 70 100 91 88 54 48 38 16 21 56 45 47 75 98 81 80 89 96 71 90 51 48 40 35 36
52 42 23 25 33 24 14 4 2 2 2 30 38 27 58 40 41 45 46 48 64 100 98 96 91 85 70 38 21 40 100 88 83 78 89 61 97 90 92 99 92 63 41 37 34
76 51 40 51 67 30 17 8 3 2 4 58 83 94 59 82 100 75 66 65 76 96 96 98 100 100 100 66 27 26 31 48 67 92 82 50 88 81 68 97 82 94 57 41 40
99 58 47 77 76 38 18 19 9 2 5 56 77 69 92 100 93 100 49 57 88 100 95 97 100 87 100 72 41 25 27 38 42 98 99 68 98 100 100 99 83 78 55 50 41
95 81 71 81 52 34 35 24 25 7 5 15 66 91 99 100 100 87 86 79 75 95 90 96 97 98 97 100 82 23 53 90 94 82 66 91 81 78 79 70 46 71 65 58 42
99 76 65 54 49 51 51 41 38 20 5 30 55 83 94 97 99 88 100 66 84 99 94 98 97 90 81 92 68 48 45 86 96 100 80 74 86 84 93 98 93 62 70 94 94
97 69 61 49 40 55 63 68 48 27 8 7 35 63 94 82 99 100 71 53 90 100 97 97 98 99 98 76 100 75 45 33 24 38 60 52 86 78 99 98 79 84 83 77 99
96 69 72 70 65 57 52 46 63 37 19 5 9 58 84 100 96 98 90 80 97 98 95 96 96 100 99 79 70 99 100 96 40 23 42 86 75 85 70 91 85 96 79 52 43
91 84 97 76 69 53 44 69 71 51 25 8 6 10 95 79 98 100 85 85 100 99 97 94 98 68 63 83 79 84 97 100 100 84 78 88 91 89 100 100 98 93 70 26 18

GFSSW_500_rhum_081.txt.gz
RH
39 43 46 47 42 36 31 28 24 24 23 23 23 25 31 31 36 49 48 54 59 46 48 50 48 32 25 15 8 7 8 32 70 100 100 96 61 64 31 35 37 54 76 94 99
50 52 50 49 45 44 42 36 32 29 26 27 28 30 33 34 45 51 50 61 66 57 51 48 51 34 24 14 9 6 10 16 76 100 97 91 73 70 44 52 66 45 82 93 95
47 47 44 47 39 41 39 46 39 35 36 32 41 43 39 41 44 52 52 69 65 65 58 50 52 32 24 18 11 10 18 16 40 100 100 60 42 18 68 54 69 61 92 66 75
41 46 45 43 44 40 37 38 42 42 40 38 42 47 41 44 44 45 51 67 72 63 57 52 51 32 22 16 9 10 20 35 35 69 94 47 32 18 32 34 57 33 23 42 19
48 39 43 43 44 47 46 39 39 36 44 44 41 41 43 44 54 34 52 66 81 72 63 58 54 35 25 16 9 10 21 21 28 34 55 37 26 31 51 67 78 77 36 16 14
66 60 55 50 45 41 40 38 35 36 38 35 39 38 40 51 37 42 57 64 78 69 69 66 60 41 29 14 10 11 10 13 23 87 82 86 92 59 55 81 78 67 47 33 25
71 69 64 61 56 52 51 48 46 37 33 32 27 24 27 61 36 33 59 61 70 70 71 70 62 43 30 14 14 18 8 27 88 87 79 63 68 47 64 90 95 50 44 44 38
83 73 74 76 70 71 64 54 43 39 38 31 23 16 20 46 32 34 35 48 67 76 76 64 63 45 31 17 17 22 31 66 67 90 81 54 62 54 71 70 72 49 48 59 48
96 96 94 92 86 92 94 84 54 42 34 30 28 19 20 43 33 31 32 50 51 78 77 68 63 56 32 14 17 38 63 68 65 94 83 57 49 32 88 68 43 37 43 56 47
94 83 79 65 64 80 91 70 49 45 37 32 27 22 23 23 36 37 20 43 44 72 81 80 70 60 34 16 16 26 60 67 75 78 58 84 66 40 79 70 37 34 39 43 39
31 54 46 41 42 43 40 50 74 60 53 39 31 26 21 22 22 25 20 23 43 54 82 89 67 59 37 19 17 22 43 74 49 86 97 92 52 55 89 64 43 35 47 25 39
15 18 23 26 23 21 20 19 24 43 48 51 41 40 28 23 20 21 19 17 29 56 85 66 73 62 39 24 12 29 48 33 48 88 90 69 61 59 74 85 75 69 52 33 20
11 11 11 11 12 10 9 10 12 15 27 31 37 38 32 26 24 26 22 24 29 47 79 79 88 79 51 30 13 15 29 42 55 76 67 71 60 88 81 59 90 59 50 38 30
9 8 8 7 7 7 7 7 6 8 13 26 17 26 29 26 24 25 26 30 26 38 81 58 98 86 69 36 15 15 39 48 47 53 56 61 57 63 54 58 70 78 77 76 40
8 7 7 6 6 6 6 5 5 4 6 16 18 16 17 22 22 23 45 35 30 47 71 57 93 96 78 39 19 14 36 29 33 38 38 69 86 82 90 69 58 39 33 53 60
6 5 5 5 4 4 4 4 3 3 4 10 12 14 13 15 22 23 30 43 44 59 55 52 94 98 86 44 19 14 29 31 36 37 33 67 94 80 71 77 67 26 16 27 30
4 4 4 3 3 3 3 3 2 2 4 6 6 6 6 7 15 23 25 35 35 41 36 53 63 87 80 49 24 13 23 34 41 37 35 50 74 62 94 64 68 41 29 23 21
3 3 3 3 3 2 2 2 3 2 2 3 3 5 4 5 9 23 26 27 29 39 58 67 73 95 75 69 27 19 19 34 36 43 75 63 81 100 84 93 90 88 54 33 17
3 3 2 2 4 3 4 3 2 2 2 2 5 24 5 3 5 14 25 24 28 39 53 72 66 98 84 58 30 22 17 43 58 47 95 99 79 97 89 91 100 74 74 48 34
3 3 3 10 21 19 12 2 2 2 2 2 11 97 98 100 49 36 31 25 26 35 74 76 96 88 92 70 38 34 33 61 80 98 83 95 88 94 87 94 95 97 60 56 34
23 24 20 49 63 46 10 10 16 13 7 3 12 77 100 100 61 100 45 43 45 45 69 84 91 84 97 78 39 48 24 74 97 86 60 77 93 94 96 100 88 98 74 66 62
99 67 59 100 86 34 17 23 27 23 26 7 22 38 100 99 100 83 92 86 51 55 54 63 100 95 96 90 59 63 60 35 91 83 99 67 63 84 83 88 99 95 84 64 40
98 91 79 85 57 40 40 37 40 32 26 13 10 99 85 100 95 74 98 100 87 73 80 84 85 98 98 80 58 77 68 55 46 61 45 58 63 96 99 91 99 77 67 92 69
98 87 79 67 49 55 47 41 44 49 47 25 15 74 100 68 100 100 95 90 98 100 77 69 62 82 76 77 72 89 70 84 51 32 52 69 49 98 99 99 97 98 80 93 62
91 68 66 58 47 55 57 54 50 49 46 43 25 8 81 94 80 86 94 100 86 100 100 61 53 99 92 86 95 97 78 73 58 28 88 77 97 80 86 93 95 73 80 59 56
85 68 69 66 63 54 55 46 50 65 71 70 32 8 72 92 100 95 88 94 91 94 91 42 51 99 100 96 94 98 86 89 68 64 78 86 76 80 79 92 89 100 90 78 69
88 91 88 68 66 57 51 62 62 80 69 66 42 25 7 51 87 72 97 100 99 100 92 56 46 98 97 99 99 90 98 71 72 99 69 55 43 64 94 90 77 93 57 73 76

GFSSW_500_rhum_084.txt.gz
RH
44 40 38 38 38 43 46 44 38 33 30 28 23 24 25 23 25 32 39 53 49 55 55 54 52 47 43 27 25 12 10 10 24 21 30 41 43 38 31 35 56 88 90 74 97
45 44 40 41 43 42 45 48 45 36 38 33 31 28 24 29 36 40 46 49 44 46 60 55 56 48 40 27 23 13 13 8 14 17 20 26 36 35 19 43 71 40 53 51 93
44 48 47 43 43 44 40 38 38 35 34 34 33 34 31 35 41 47 47 50 47 50 60 60 58 50 40 29 22 14 12 7 11 13 25 16 9 11 18 28 53 53 50 21 54
54 52 50 45 47 44 46 40 36 34 33 30 28 34 34 41 41 43 42 49 55 58 62 64 63 55 46 31 24 13 7 7 9 11 26 20 21 69 72 45 54 37 47 23 21
61 58 58 52 48 48 44 47 43 40 39 34 29 26 30 36 46 27 42 42 53 63 61 64 72 64 51 36 24 15 9 6 8 58 82 62 47 56 37 54 80 64 62 41 21
80 68 62 65 64 59 52 49 52 40 34 32 27 27 26 41 26 32 37 42 43 54 54 60 67 69 54 36 26 14 11 9 17 70 70 61 71 74 61 88 68 49 43 42 35
98 95 88 78 77 72 66 60 56 50 42 40 37 30 27 48 22 28 35 43 35 52 46 58 60 66 53 39 24 14 12 11 50 61 64 55 50 49 57 71 56 48 39 38 32
96 94 97 94 90 84 76 66 63 56 52 47 42 34 34 38 27 26 21 36 41 54 48 48 43 74 60 41 27 15 16 28 32 73 98 75 58 36 41 71 64 34 44 36 26
90 95 96 96 97 95 94 83 75 62 59 48 43 34 35 34 30 24 19 32 31 42 49 31 43 77 68 45 26 16 20 39 58 54 90 58 61 38 63 82 46 40 43 34 28
56 62 74 86 95 96 96 99 94 86 70 58 54 57 45 34 29 31 28 28 31 28 39 24 42 48 78 48 24 17 17 25 38 30 72 83 49 50 51 49 76 84 49 24 46
41 54 36 37 40 42 91 97 82 74 66 67 68 57 47 38 31 28 27 22 21 19 31 30 31 43 72 53 33 18 16 17 24 29 37 75 50 48 44 68 83 88 46 26 28
12 14 16 18 19 22 25 31 82 79 52 45 49 47 63 55 48 30 25 24 21 26 40 18 20 74 71 64 39 21 15 20 18 21 31 76 64 58 55 81 79 68 44 30 26
9 8 9 11 12 12 13 15 16 20 42 36 33 38 36 45 43 41 33 26 22 23 21 19 59 69 66 77 55 31 15 15 18 28 23 31 47 55 66 69 71 67 68 36 34
7 8 8 8 9 9 9 8 9 11 13 21 17 23 24 28 30 38 37 32 29 24 35 18 62 43 69 86 77 45 23 19 22 21 29 49 44 42 30 48 50 51 69 61 53
7 7 6 7 8 7 8 8 8 7 9 11 12 12 14 19 20 20 29 31 27 31 35 24 57 61 78 93 91 44 28 24 24 24 29 44 40 56 37 51 49 48 46 48 33
5 7 7 7 7 6 6 6 6 5 7 9 9 8 8 9 14 15 18 24 25 27 31 26 63 58 58 91 90 43 32 29 24 24 21 38 34 65 70 62 58 30 37 37 31
3 4 4 6 7 6 6 5 4 4 6 6 5 5 5 5 5 8 13 17 22 24 22 35 31 49 62 81 82 60 31 25 26 19 21 36 25 63 92 69 46 39 34 32 29
3 3 3 3 4 5 4 4 4 4 4 3 3 4 4 4 4 6 9 12 18 23 22 34 38 50 55 69 98 73 41 28 21 17 28 32 30 41 72 53 36 48 45 39 30
3 3 3 3 3 3 3 3 3 3 3 3 2 4 5 5 4 6 5 8 14 27 27 32 28 57 74 99 100 79 57 40 38 20 21 32 78 66 66 59 64 46 41 53 54
5 4 3 4 4 3 3 2 2 2 2 2 2 16 27 14 8 4 11 5 11 21 30 32 35 60 90 100 93 87 81 56 55 26 18 30 79 66 86 71 86 78 87 86 88
6 4 4 5 4 3 2 2 3 4 7 5 3 2 12 51 22 12 13 11 12 35 38 34 36 55 100 82 86 81 67 55 64 39 21 28 40 80 70 54 93 83 73 66 70
5 4 4 8 6 3 3 8 24 28 34 16 10 7 5 99 100 79 55 16 40 57 44 53 68 63 77 100 87 79 65 56 36 36 27 56 42 62 80 69 60 59 53 89 76
4 5 12 21 17 26 36 40 48 42 45 31 26 21 15 68 86 96 85 100 88 55 50 62 67 81 93 99 94 90 66 66 96 42 59 99 58 60 77 78 94 97 87 72 62
25 42 66 72 63 64 71 66 51 52 57 48 46 28 17 8 81 96 100 100 100 94 64 97 73 65 42 65 92 97 80 63 100 72 31 70 65 43 69 97 94 99 86 86 90
67 56 51 48 50 80 87 78 75 65 62 70 53 34 27 12 22 69 100 100 100 100 100 92 61 59 56 91 100 100 93 86 91 92 61 36 32 33 63 92 98 92 95 100 90
55 44 46 58 70 74 73 57 65 75 78 75 55 60 28 15 16 30 100 96 97 100 100 84 88 75 60 66 88 92 98 95 93 97 93 77 35 63 83 71 68 78 97 97 81
64 59 59 63 67 57 50 64 70 76 74 69 76 64 36 17 31 25 61 87 87 100 100 98 87 83 67 68 100 98 86 83 96 88 91 83 56 78 71 92 75 82 74 49 61

GFSSW_500_rhum_087.txt.gz
RH
41 42 42 39 37 41 36 37 37 40 38 33 28 26 28 23 25 23 25 32 36 51 41 33 49 51 47 45 30 24 21 11 9 8 9 10 10 10 10 17 43 53 61 95 48
48 50 48 46 42 39 41 38 39 39 40 36 32 29 26 30 26 26 32 39 44 51 40 42 45 62 54 48 33 24 22 13 10 11 7 9 9 8 11 19 36 56 68 80 48
63 60 67 56 49 44 42 42 44 44 38 35 31 29 25 31 32 33 37 38 38 47 39 49 43 64 57 54 41 25 20 14 10 8 10 13 8 13 20 51 57 72 74 74 47
76 68 75 88 77 48 47 45 42 45 42 34 31 30 27 29 33 31 39 40 43 45 46 47 40 39 64 60 48 28 21 14 10 11 13 23 20 32 58 38 76 68 55 44 34
83 85 78 86 100 64 52 52 47 44 42 39 33 31 30 30 40 22 31 32 41 49 48 52 49 27 53 64 52 34 20 13 11 8 11 34 48 52 59 41 76 56 40 34 23
89 91 86 85 97 93 66 58 51 44 40 38 34 34 31 34 32 28 33 32 29 38 46 53 56 32 49 64 54 42 24 14 12 15 30 48 52 46 39 38 55 40 32 28 24
90 88 92 90 83 96 95 77 69 63 48 38 36 35 28 45 31 31 35 36 35 35 42 50 44 35 48 63 60 45 25 15 16 41 52 57 64 40 33 53 51 31 29 30 28
88 95 99 97 94 91 89 99 92 78 62 63 47 39 41 50 39 39 34 36 34 39 44 33 32 28 47 43 67 51 27 16 19 34 49 61 54 33 24 38 40 37 33 28 32
85 89 97 98 93 98 98 95 97 84 66 66 62 53 50 49 43 38 37 38 31 34 36 28 24 30 46 38 69 59 35 18 19 41 76 57 39 33 59 61 41 56 40 25 33
83 78 88 73 91 83 82 96 96 92 87 69 56 60 57 55 57 53 39 33 31 28 31 26 17 31 41 56 79 65 46 23 18 39 51 39 36 36 58 60 41 74 42 25 34
28 38 39 41 38 63 82 42 86 86 78 85 60 70 78 76 70 57 50 44 30 28 27 31 19 25 75 89 64 59 53 30 18 34 26 26 40 28 48 50 57 71 39 27 29
21 14 13 13 16 20 26 48 39 73 48 66 83 73 74 68 73 56 48 46 32 29 32 28 16 64 77 80 49 65 65 40 20 43 23 20 25 25 41 51 55 64 40 39 27
8 8 10 10 10 10 11 13 16 38 52 43 38 61 60 49 50 60 70 55 40 28 26 24 29 61 67 68 38 72 74 47 24 33 19 15 24 26 36 44 66 64 43 40 47
8 8 7 7 8 9 9 9 9 11 14 26 22 27 30 34 45 31 41 52 50 40 29 26 31 35 36 49 55 66 79 80 47 16 13 21 17 27 30 40 44 40 55 42 50
9 8 7 6 6 7 8 9 9 9 10 11 13 13 14 13 18 15 15 32 44 44 36 35 43 42 38 58 74 89 97 92 61 22 12 28 28 38 28 41 47 38 30 29 34
8 7 7 6 5 6 6 7 6 8 8 9 9 9 9 9 10 10 12 16 21 27 38 42 42 45 58 94 92 97 92 89 79 37 16 22 33 28 28 49 46 32 28 27 28
4 4 5 4 4 4 6 6 7 6 7 7 7 7 7 7 7 8 8 12 16 18 24 31 30 33 66 82 97 64 79 74 70 52 29 20 22 20 35 30 43 43 24 27 28
4 3 3 3 3 3 4 5 5 5 6 5 5 6 6 6 5 5 5 6 11 15 17 24 28 34 40 52 82 78 91 86 88 60 26 20 15 19 41 24 37 51 32 26 34
5 4 4 5 4 3 3 3 3 4 5 5 5 4 4 4 4 5 5 5 5 9 19 22 22 37 59 84 96 80 74 88 93 80 36 19 14 24 23 30 29 51 43 46 56
7 6 5 6 5 4 3 2 3 3 3 4 4 4 4 3 3 5 5 5 5 5 9 18 21 28 51 85 80 86 100 99 83 70 40 29 16 18 42 47 42 47 52 61 67
14 9 7 10 7 4 3 2 2 3 3 3 3 3 4 9 5 3 4 10 13 7 7 11 19 26 58 57 70 85 93 89 86 78 54 37 25 32 39 58 64 64 47 62 53
6 8 8 10 9 6 3 3 3 3 3 3 3 4 4 4 7 5 3 6 12 10 15 18 14 19 35 79 74 97 96 100 93 78 61 39 26 34 43 48 66 66 64 79 66
18 12 7 8 6 5 5 5 4 4 6 6 8 19 13 10 4 17 6 17 39 42 25 34 10 19 31 65 68 84 100 100 100 100 72 47 32 61 59 53 67 78 56 61 97
43 20 10 7 6 6 6 5 8 19 49 66 47 42 28 19 14 7 15 27 85 63 98 98 39 14 14 40 72 94 100 100 100 89 69 43 39 49 100 76 38 46 87 96 100
39 14 9 8 5 7 12 45 96 100 100 99 71 72 66 27 22 14 7 17 32 97 100 87 85 49 22 36 83 99 100 97 84 83 75 55 55 40 77 88 43 52 99 100 100
40 26 24 26 40 40 93 100 100 100 100 100 100 95 66 32 23 29 15 32 84 96 100 100 78 67 27 46 87 100 96 96 89 82 81 80 62 62 54 49 33 45 85 100 93
60 55 54 60 77 94 90 100 100 100 100 100 100 75 58 61 48 30 14 29 87 82 99 100 100 96 49 70 91 96 63 85 83 83 84 90 75 68 67 41 44 67 76 85 83